Stations météo

réclame
Mon MeteoGroup
Kinloss, Grande-Bretagne (3066): Température de l'air & dewpoint: 18.10.2018 06:00:00 - 24.10.2018 06:00:00 (BST)Kinloss, Grande-Bretagne (3066): Température de l'air -20cm & Température de l'air -100cm: 18.10.2018 06:00:00 - 24.10.2018 06:00:00 (BST)Kinloss, Grande-Bretagne (3066): Vitesse du vent & gusts: 18.10.2018 06:00:00 - 24.10.2018 06:00:00 (BST)Kinloss, Grande-Bretagne (3066): Direction du vent: 18.10.2018 06:00:00 - 24.10.2018 06:00:00 (BST)Kinloss, Grande-Bretagne (3066): reduced air pressure: 18.10.2018 06:00:00 - 24.10.2018 06:00:00 (BST)Kinloss, Grande-Bretagne (3066): visibility: 18.10.2018 06:00:00 - 24.10.2018 06:00:00 (BST)Kinloss, Grande-Bretagne (3066): Ensoleillement: 18.10.2018 06:00:00 - 24.10.2018 06:00:00 (BST)Kinloss, Grande-Bretagne (3066): Quantités de précipitations: 18.10.2018 06:00:00 - 24.10.2018 06:00:00 (BST)
Date & Time tt [°C] td [°C] tt -20cm [°C] tt -100cm [°C] ff [km/h] ff [knt] fx [km/h] fx [knt] dd ppp [hPa] vv [km] sd [min] rr [mm]
24.10.2018 06:00:00 12,7 9,4 - - 31 17 48 26 WSW 1023,2 70 0 0,0
24.10.2018 05:00:00 12,8 9,5 - - 37 20 57 31 WSW 1022,4 65 0 0,0
24.10.2018 04:00:00 12,7 9,6 - - 46 25 57 31 W 1022,4 65 0 0,0
24.10.2018 03:00:00 13,0 9,5 - - 34 18 50 27 WSW 1022,5 65 0 0,0
24.10.2018 02:00:00 13,1 9,8 - - 34 18 52 28 WSW 1022,4 60 0 0,0
24.10.2018 01:00:00 13,2 9,8 - - 39 21 57 31 W 1021,9 65 - 0,0
24.10.2018 00:00:00 13,4 10,0 - - 39 21 54 29 W 1021,9 60 0 0,0
23.10.2018 23:00:00 13,4 10,2 - - 39 21 65 35 W 1021,4 55 0 0,0
23.10.2018 22:00:00 13,6 10,6 - - 48 26 68 37 W 1020,5 65 0 0,0
23.10.2018 21:00:00 13,8 10,9 - - 48 26 65 35 WSW 1020,1 60 0 0,0
23.10.2018 20:00:00 14,2 10,9 - - 41 22 61 33 W 1019,8 60 0 0,0
23.10.2018 19:00:00 14,0 11,0 - - 39 21 59 32 WSW 1019,7 65 0 0,0
23.10.2018 18:00:00 13,9 10,5 - - 37 20 57 31 WSW 1019,2 65 0 0,0
23.10.2018 17:00:00 13,9 10,1 - - 41 22 61 33 W 1019,4 65 0 0,0
23.10.2018 16:00:00 14,1 10,0 - - 52 28 72 39 W 1019,1 65 0 0,0
23.10.2018 15:00:00 13,7 10,2 - - 39 21 68 37 WSW 1019,2 65 0 0,0
23.10.2018 14:00:00 14,6 9,9 - - 48 26 72 39 W 1019,2 65 12 0,0
23.10.2018 13:00:00 13,7 10,0 - - 50 27 67 36 W 1019,3 65 0 0,0
23.10.2018 12:00:00 13,2 10,1 - - 42 23 63 34 W 1019,8 60 0 0,0
23.10.2018 11:00:00 12,9 9,7 - - 42 23 67 36 W 1019,4 50 0 0,0
23.10.2018 10:00:00 12,8 9,6 11,0 10,9 44 24 59 32 WSW 1018,6 65 0 0,0
23.10.2018 09:00:00 12,6 9,1 - - 34 18 50 27 WSW 1018,6 55 0 0,0
23.10.2018 08:00:00 12,4 8,7 - - 35 19 59 32 WSW 1018,5 60 0 0,0
23.10.2018 07:00:00 11,9 8,4 - - 31 17 55 30 SW 1018,6 65 0 0,0
23.10.2018 06:00:00 11,6 8,4 - - 31 17 57 31 WSW 1018,5 60 0 0,0
23.10.2018 05:00:00 11,5 8,8 - - 41 22 68 37 WSW 1018,4 40 0 0,2
23.10.2018 04:00:00 11,8 9,0 - - 46 25 72 39 WSW 1017,7 23 0 0,0
23.10.2018 03:00:00 12,7 8,9 - - 44 24 65 35 WSW 1018,0 40 0 0,0
23.10.2018 02:00:00 12,6 9,0 - - 44 24 70 38 WSW 1017,7 28 0 0,0
23.10.2018 01:00:00 12,4 9,2 - - 41 22 59 32 WSW 1018,5 23 - 0,0
23.10.2018 00:00:00 12,6 8,6 - - 41 22 65 35 WSW 1019,3 35 0 0,0
22.10.2018 23:00:00 12,5 8,3 - - 48 26 80 43 SW 1020,1 23 0 0,0
22.10.2018 22:00:00 12,2 8,0 - - 52 28 76 41 WSW 1020,9 26 0 0,0
22.10.2018 21:00:00 12,1 7,3 - - 50 27 74 40 WSW 1021,5 24 0 0,0
22.10.2018 20:00:00 11,9 6,1 - - 48 26 80 43 WSW 1021,5 25 0 0,0
22.10.2018 19:00:00 11,6 5,6 - - 44 24 67 36 WSW 1022,2 24 0 0,0
22.10.2018 18:00:00 11,7 5,4 - - 44 24 74 40 WSW 1022,9 25 0 0,0
22.10.2018 17:00:00 12,1 4,9 - - 48 26 78 42 WSW 1023,3 27 18 0,0
22.10.2018 16:00:00 12,9 4,9 - - 54 29 80 43 WSW 1023,6 30 60 0,0
22.10.2018 15:00:00 12,3 6,9 - - 48 26 76 41 SW 1024,3 50 6 0,0
22.10.2018 14:00:00 12,0 6,2 - - 39 21 59 32 WSW 1025,9 45 0 0,0
22.10.2018 13:00:00 11,7 6,4 - - 37 20 57 31 WSW 1027,0 50 0 0,0
22.10.2018 12:00:00 10,9 5,5 - - 31 17 48 26 SW 1028,3 45 0 0,0
22.10.2018 11:00:00 10,4 4,1 - - 37 20 50 27 WSW 1028,7 45 24 0,0
22.10.2018 10:00:00 9,4 3,9 11,0 11,0 34 18 - - WSW 1029,5 40 24 0,0
22.10.2018 09:00:00 7,8 3,7 - - 24 13 - - WSW 1030,1 40 12 0,0
22.10.2018 08:00:00 6,9 3,6 - - 21 11 - - SW 1029,8 40 0 0,0
22.10.2018 07:00:00 7,2 3,4 - - 24 13 46 25 WSW 1029,7 40 0 0,0
22.10.2018 06:00:00 7,6 4,0 - - 28 15 - - WSW 1029,6 35 0 0,0
22.10.2018 05:00:00 7,2 4,0 - - 37 20 54 29 W 1029,1 40 0 0,0
22.10.2018 04:00:00 7,1 3,3 - - 26 14 48 26 WSW 1028,8 35 0 0,0
22.10.2018 03:00:00 7,1 3,3 - - 26 14 61 33 WSW 1028,3 35 0 0,0
22.10.2018 02:00:00 6,7 1,8 - - 26 14 52 28 WSW 1027,5 40 0 0,0
22.10.2018 01:00:00 7,4 2,5 - - 28 15 54 29 WSW 1027,3 35 - 0,0
22.10.2018 00:00:00 7,8 3,2 - - 31 17 - - W 1027,0 30 0 0,0
21.10.2018 23:00:00 6,2 1,2 - - 24 13 - - SW 1026,1 35 0 0,0
21.10.2018 22:00:00 7,3 1,8 - - 26 14 50 27 SW 1025,8 40 0 0,0
21.10.2018 21:00:00 7,9 2,5 - - 31 17 46 25 WSW 1025,1 50 0 0,0
21.10.2018 20:00:00 8,6 4,1 - - 24 13 - - WSW 1024,7 50 0 0,0
21.10.2018 19:00:00 8,5 3,6 - - 39 21 57 31 WSW 1023,7 50 0 0,0
21.10.2018 18:00:00 9,2 3,3 - - 22 12 46 25 SW 1022,8 40 0 0,0
21.10.2018 17:00:00 10,1 4,5 - - 28 15 55 30 WSW 1022,2 40 42 0,0
21.10.2018 16:00:00 10,3 5,3 - - 37 20 63 34 W 1021,5 40 18 0,0
21.10.2018 15:00:00 12,3 8,9 - - 21 11 48 26 W 1020,7 35 60 0,2
21.10.2018 14:00:00 11,3 8,3 - - 29 16 - - SW 1019,8 50 30 0,0
21.10.2018 13:00:00 10,4 7,8 - - 24 13 - - WSW 1019,7 45 0 0,0
21.10.2018 12:00:00 10,2 7,8 - - 18 10 - - WSW 1019,3 65 0 0,0
21.10.2018 11:00:00 10,0 8,3 - - 16 9 - - SW 1019,1 65 0 0,0
21.10.2018 10:00:00 9,9 8,8 11,2 11,0 18 10 - - WSW 1019,7 75 0 0,0
21.10.2018 09:00:00 10,1 8,7 - - 18 10 - - WSW 1019,3 60 0 0,2
21.10.2018 08:00:00 9,5 9,1 - - 16 9 - - NW 1018,6 4,5 0 0,8
21.10.2018 07:00:00 10,0 9,6 - - 22 12 - - NW 1018,3 4,1 0 1,2
21.10.2018 06:00:00 11,1 10,9 - - 18 10 - - NW 1017,4 2,6 0 2,0
21.10.2018 05:00:00 12,0 11,1 - - 22 12 - - NW 1017,2 4,9 0 0,0
21.10.2018 04:00:00 15,6 12,6 - - 18 10 - - WSW 1016,6 70 0 0,0
21.10.2018 03:00:00 15,7 12,3 - - 13 7 - - WSW 1017,0 75 0 0,0
21.10.2018 02:00:00 15,2 12,2 - - 11 6 - - WSW 1017,2 75 0 0,0
21.10.2018 01:00:00 15,0 12,4 - - 11 6 54 29 SW 1018,0 75 - 0,0
21.10.2018 00:00:00 15,7 12,5 - - 5 3 - - WSW 1018,5 75 0 0,0
20.10.2018 23:00:00 16,5 12,8 - - 16 9 - - SSW 1018,7 70 0 0,0
20.10.2018 22:00:00 16,2 12,5 - - 9 5 - - SSW 1019,3 65 0 0,0
20.10.2018 21:00:00 16,6 12,5 - - 16 9 - - SW 1019,7 75 0 0,0
20.10.2018 20:00:00 17,0 12,5 - - 18 10 - - SW 1019,7 75 0 0,0
20.10.2018 19:00:00 17,0 12,3 - - 21 11 - - SSW 1019,2 70 0 0,0
20.10.2018 18:00:00 17,3 12,2 - - 24 13 - - SSW 1018,8 70 0 0,0
20.10.2018 17:00:00 17,6 12,1 - - 16 9 - - SW 1019,4 75 0 0,0
20.10.2018 16:00:00 17,9 12,1 - - 26 14 59 32 WSW 1019,2 70 30 0,0
20.10.2018 15:00:00 17,7 12,0 - - 37 20 52 28 SW 1018,7 75 60 0,0
20.10.2018 14:00:00 17,4 11,9 - - 39 21 57 31 WSW 1019,3 75 30 0,0
20.10.2018 13:00:00 17,0 11,4 - - 39 21 59 32 SW 1019,8 65 54 0,0
20.10.2018 12:00:00 16,4 11,1 - - 34 18 48 26 SW 1019,2 75 30 0,0
20.10.2018 11:00:00 16,2 11,0 - - 29 16 50 27 SW 1019,7 70 12 -
20.10.2018 10:00:00 15,0 11,0 10,9 11,0 28 15 - - SW 1019,5 70 0 0,0
20.10.2018 09:00:00 12,9 10,2 - - 8 4 - - SW 1018,9 70 6 0,0
20.10.2018 08:00:00 9,2 7,0 - - 5 3 - - SSW 1019,4 55 0 0,0
20.10.2018 07:00:00 10,6 7,6 - - 4 2 - - SW 1020,0 55 0 0,0
20.10.2018 06:00:00 9,7 6,4 - - 5 3 - - SSW 1020,6 50 0 0,0
20.10.2018 05:00:00 8,5 4,9 - - 8 4 - - SSW 1021,4 45 0 0,0
20.10.2018 04:00:00 9,1 4,5 - - 18 10 - - S 1021,6 45 0 0,0
20.10.2018 03:00:00 7,2 4,0 - - 5 3 - - S 1022,5 40 0 0,0
20.10.2018 02:00:00 7,5 4,9 - - 11 6 - - S 1023,5 35 0 0,0
20.10.2018 01:00:00 8,2 4,7 - - 8 4 - - S 1023,0 45 - 0,0
20.10.2018 00:00:00 8,3 4,5 - - 8 4 - - S 1023,6 45 0 0,0
19.10.2018 23:00:00 8,7 4,9 - - 13 7 - - SSW 1023,4 50 0 0,0
19.10.2018 22:00:00 8,9 5,3 - - 11 6 - - SSW 1023,3 45 0 0,0
19.10.2018 21:00:00 9,1 5,1 - - 11 6 - - SSW 1023,1 50 0 0,0
19.10.2018 20:00:00 8,5 5,3 - - 11 6 - - SE 1022,4 50 0 0,0
19.10.2018 19:00:00 9,6 6,1 - - 8 4 - - SSW 1022,3 45 0 0,0
19.10.2018 18:00:00 10,4 6,4 - - 22 12 - - W 1020,9 45 6 0,0
19.10.2018 17:00:00 11,3 7,1 - - 26 14 - - W 1020,4 35 12 0,0
19.10.2018 16:00:00 13,1 6,1 - - 28 15 50 27 W 1019,7 35 60 0,0
19.10.2018 15:00:00 12,9 7,1 - - 22 12 - - WSW 1018,8 35 54 0,0
19.10.2018 14:00:00 11,3 9,1 - - 22 12 - - WSW 1018,2 50 0 0,2
19.10.2018 13:00:00 11,2 8,9 - - 16 9 - - SW 1017,1 5 0 0,2
19.10.2018 12:00:00 11,8 8,1 - - 18 10 - - SW 1016,5 65 18 0,0
19.10.2018 11:00:00 10,4 8,2 - - 13 7 - - SSW 1016,5 55 0 0,8
19.10.2018 10:00:00 10,6 5,9 10,9 11,0 18 10 - - SSW 1016,2 20 36 0,0
19.10.2018 09:00:00 9,5 4,1 - - 11 6 - - SSW 1016,3 50 0 0,0
19.10.2018 08:00:00 9,8 4,3 - - 16 9 - - SSW 1016,7 50 0 0,0
19.10.2018 07:00:00 10,4 4,1 - - 28 15 46 25 SSW 1016,7 55 0 0,0
19.10.2018 06:00:00 9,8 3,7 - - 11 6 - - S 1017,2 55 0 0,0
19.10.2018 05:00:00 9,1 3,7 - - 16 9 - - SSW 1017,8 55 0 0,0
19.10.2018 04:00:00 9,3 3,8 - - 18 10 - - SSW 1018,8 55 0 0,0
19.10.2018 03:00:00 9,2 3,5 - - 15 8 - - SSW 1019,9 65 0 0,0
19.10.2018 02:00:00 9,2 3,8 - - 13 7 - - S 1020,3 55 0 0,0
19.10.2018 01:00:00 8,1 4,2 - - 8 4 - - E 1021,2 60 - 0,0
19.10.2018 00:00:00 9,0 4,4 - - 11 6 - - S 1022,2 50 0 0,0
18.10.2018 23:00:00 8,8 4,4 - - 9 5 - - S 1023,0 55 0 0,0
18.10.2018 22:00:00 8,9 4,9 - - 11 6 - - S 1023,6 55 0 0,0
18.10.2018 21:00:00 9,1 5,0 - - 9 5 - - SSE 1024,0 60 0 0,0
18.10.2018 20:00:00 9,0 4,7 - - 8 4 - - SSW 1024,1 60 0 0,0
18.10.2018 19:00:00 9,4 4,9 - - 11 6 - - SSW 1024,6 55 0 0,0
18.10.2018 18:00:00 10,1 4,9 - - 5 3 - - S 1024,7 45 0 0,0
18.10.2018 17:00:00 10,9 4,9 - - 8 4 - - SSW 1025,0 55 0 0,0
18.10.2018 16:00:00 11,4 4,8 - - 13 7 - - SSW 1025,1 55 0 0,0
18.10.2018 15:00:00 11,9 4,9 - - 11 6 - - SW 1025,8 50 0 0,0
18.10.2018 14:00:00 11,5 5,3 - - 9 5 - - WSW 1026,3 55 0 0,0
18.10.2018 13:00:00 11,6 5,9 - - 13 7 - - SW 1026,6 50 0 0,0
18.10.2018 12:00:00 10,8 5,5 - - 13 7 - - SSW 1026,7 55 12 0,0
18.10.2018 11:00:00 10,2 5,0 - - 13 7 - - SSW 1027,1 55 42 0,0
18.10.2018 10:00:00 8,8 4,2 11,0 11,2 15 8 - - SSW 1027,0 55 18 0,0
18.10.2018 09:00:00 7,1 3,8 - - 9 5 - - S 1026,8 45 30 0,0
18.10.2018 08:00:00 6,1 3,2 - - 13 7 - - SSW 1026,7 50 0 0,0
18.10.2018 07:00:00 6,1 3,2 - - 13 7 - - SSW 1026,4 45 0 0,0
18.10.2018 06:00:00 6,3 2,8 - - 16 9 - - SSW 1026,0 45 0 0,0

tt = Température de l'air
td = dewpoint
tt -20cm = Température de l'air -20cm
tt -100cm = Température de l'air -100cm
ff = Vitesse du vent
fx = gusts
dd = Direction du vent
ppp = reduced air pressure
vv = visibility
sd = Ensoleillement
rr = Quantités de précipitations

stations d'obs. à proximité